Weather History for El Centro, CA

Change the Weather History Date:

Monday, December 3, 2012

  Actual Average Record
Temperature  
Mean Temperature 70 °F -  
Max Temperature 81 °F 68 °F 81 °F (2012)
Min Temperature 59 °F 45 °F 36 °F (2004)
Cooling Degree Days 5    
Growing Degree Days 20 (Base 50)    
Moisture  
Dew Point 49 °F    
Average Humidity 52    
Maximum Humidity 67    
Minimum Humidity 35    
Precipitation  
Precipitation 0.00 in - - ()
Sea Level Pressure  
Sea Level Pressure 30.10 in    
Wind  
Wind Speed 4 mph (West)    
Max Wind Speed 8 mph    
Max Gust Speed -    
Visibility 10 miles    
Events      
Averages and records for this station are not official NWS values.
T = Trace of Precipitation, MM = Missing Value Source: NWS Daily Summary

Daily Weather History Graph

Daily Weather History Graph

Search for Another Location

Airport:

Trip Planner

Search our weather history database for the weather conditions in past years. The results will help you decide how hot, cold, wet, or windy it might be!

Date:

Astronomy

Dec. 03, 2012 Rise Set
Actual Time 6:29 AM PST 4:36 PM PST
Civil Twilight 6:02 AM PST 5:03 PM PST
Nautical Twilight 5:31 AM PST 5:33 PM PST
Astronomical Twilight 5:01 AM PST 6:03 PM PST
Moon 9:18 PM PST (12/3) 10:02 AM PST (12/3)
Length of Visible Light 11h 00m
Length of Day
10h 06m
Waning Gibbous, 77% of the Moon is Illuminated
Dec 3
Waning Gibbous
Dec 6
Last Quarter
Dec 13
New
Dec 19
First Quarter
Dec 28
Full

Hourly Weather History & Observations

Time (PST) Temp. Dew Point Humidity Pressure Visibility Wind Dir Wind Speed Gust Speed Precip Events Conditions
12:56 AM 63.0 °F 48.0 °F 58% 30.05 in 10.0 mi West 5.8 mph - N/A   Clear
1:56 AM 63.0 °F 48.0 °F 58% 30.07 in 10.0 mi West 4.6 mph - N/A   Clear
2:56 AM 61.0 °F 48.0 °F 62% 30.06 in 10.0 mi Calm Calm - N/A   Clear
3:56 AM 59.0 °F 48.0 °F 67% 30.06 in 10.0 mi South 4.6 mph - N/A   Clear
4:56 AM 59.0 °F 46.9 °F 64% 30.06 in 10.0 mi Calm Calm - N/A   Clear
5:56 AM 60.1 °F 48.0 °F 64% 30.08 in 10.0 mi Calm Calm - N/A   Scattered Clouds
6:56 AM 59.0 °F 46.0 °F 62% 30.10 in 10.0 mi Calm Calm - N/A   Scattered Clouds
7:56 AM 64.9 °F 48.9 °F 56% 30.13 in 10.0 mi Calm Calm - N/A   Scattered Clouds
8:56 AM 71.1 °F 51.1 °F 49% 30.13 in 10.0 mi SW 6.9 mph - N/A   Scattered Clouds
9:56 AM 75.0 °F 52.0 °F 44% 30.14 in 10.0 mi WSW 8.1 mph - N/A   Scattered Clouds
10:56 AM 78.1 °F 50.0 °F 37% 30.12 in 10.0 mi Variable 5.8 mph - N/A   Scattered Clouds
11:56 AM 80.1 °F 50.0 °F 35% 30.09 in 10.0 mi NW 8.1 mph - N/A   Scattered Clouds
12:56 PM 80.1 °F 51.1 °F 36% 30.07 in 10.0 mi Calm Calm - N/A   Scattered Clouds
1:56 PM 81.0 °F 51.1 °F 35% 30.06 in 10.0 mi Variable 4.6 mph - N/A   Scattered Clouds
2:56 PM 81.0 °F 51.1 °F 35% 30.05 in 10.0 mi NNE 6.9 mph - N/A   Scattered Clouds
3:56 PM 79.0 °F 51.1 °F 38% 30.06 in 10.0 mi NE 4.6 mph - N/A   Scattered Clouds
4:56 PM 72.0 °F 54.0 °F 53% 30.07 in 10.0 mi Calm Calm - N/A   Scattered Clouds
5:56 PM 70.0 °F 52.0 °F 53% 30.09 in 10.0 mi Calm Calm - N/A   Scattered Clouds
6:56 PM 69.1 °F 53.1 °F 57% 30.11 in 10.0 mi West 3.5 mph - N/A   Clear
7:56 PM 66.9 °F 48.9 °F 52% 30.14 in 10.0 mi WSW 8.1 mph - N/A   Clear
8:56 PM 62.1 °F 48.0 °F 60% 30.15 in 10.0 mi West 6.9 mph - N/A   Clear
9:56 PM 61.0 °F 46.0 °F 58% 30.16 in 10.0 mi NW 4.6 mph - N/A   Clear
10:56 PM 59.0 °F 45.0 °F 60% 30.18 in 10.0 mi West 4.6 mph - N/A   Clear
11:56 PM 60.1 °F 46.0 °F 60% 30.17 in 10.0 mi SW 4.6 mph - N/A   Clear